Time,TemperatureF,DewpointF,PressureIn,WindDirection,WindDirectionDegrees,WindSpeedMPH,WindSpeedGustMPH,Humidity,HourlyPrecipIn,Conditions,Clouds,dailyrainin,SoftwareType,DateUTC
2013-08-31 00:00:00,72.4,72.0,29.90,East,87,0.0,-999.0,97,-99.99,,,0.94,weatherlink.com 1.10,2013-08-31 05:00:00,
2013-08-31 00:15:00,72.4,72.0,29.90,East,87,0.0,-999.0,97,-99.99,,,0.94,weatherlink.com 1.10,2013-08-31 05:15:00,
2013-08-31 00:30:00,72.4,72.0,29.90,East,87,0.0,-999.0,97,-99.99,,,0.94,weatherlink.com 1.10,2013-08-31 05:30:00,
2013-08-31 00:45:00,72.3,71.0,29.90,East,87,0.0,-999.0,97,-99.99,,,0.94,weatherlink.com 1.10,2013-08-31 05:45:00,
2013-08-31 01:00:00,72.2,71.0,29.90,East,87,0.0,-999.0,97,-99.99,,,0.94,weatherlink.com 1.10,2013-08-31 06:00:00,
2013-08-31 01:15:00,72.2,71.0,29.89,East,87,0.0,-999.0,97,-99.99,,,0.94,weatherlink.com 1.10,2013-08-31 06:15:00,
2013-08-31 01:30:00,72.1,71.0,29.89,East,87,0.0,-999.0,97,-99.99,,,0.94,weatherlink.com 1.10,2013-08-31 06:30:00,
2013-08-31 01:45:00,72.1,71.0,29.89,East,87,0.0,-999.0,97,-99.99,,,0.94,weatherlink.com 1.10,2013-08-31 06:45:00,
2013-08-31 02:00:00,71.9,71.0,29.89,East,87,0.0,-999.0,97,-99.99,,,0.94,weatherlink.com 1.10,2013-08-31 07:00:00,
2013-08-31 02:15:00,71.8,71.0,29.89,East,87,0.0,-999.0,97,-99.99,,,0.94,weatherlink.com 1.10,2013-08-31 07:15:00,
2013-08-31 02:30:00,71.9,71.0,29.89,East,87,0.0,-999.0,97,-99.99,,,0.94,weatherlink.com 1.10,2013-08-31 07:30:00,
2013-08-31 02:45:00,72.0,71.0,29.89,East,87,0.0,-999.0,97,-99.99,,,0.94,weatherlink.com 1.10,2013-08-31 07:45:00,
2013-08-31 03:00:00,72.0,71.0,29.89,East,87,0.0,-999.0,97,-99.99,,,0.94,weatherlink.com 1.10,2013-08-31 08:00:00,
2013-08-31 03:15:00,72.1,71.0,29.89,East,87,0.0,-999.0,97,-99.99,,,0.00,weatherlink.com 1.10,2013-08-31 08:15:00,
2013-08-31 03:30:00,72.0,71.0,29.89,East,87,0.0,-999.0,97,-99.99,,,0.00,weatherlink.com 1.10,2013-08-31 08:30:00,
2013-08-31 03:45:00,72.0,71.0,29.89,East,87,0.0,-999.0,97,-99.99,,,0.00,weatherlink.com 1.10,2013-08-31 08:45:00,
2013-08-31 04:00:00,72.0,71.0,29.89,East,87,0.0,-999.0,97,-99.99,,,0.00,weatherlink.com 1.10,2013-08-31 09:00:00,
2013-08-31 04:15:00,72.0,71.0,29.88,East,87,0.0,-999.0,97,-99.99,,,0.00,weatherlink.com 1.10,2013-08-31 09:15:00,
2013-08-31 04:30:00,71.9,71.0,29.89,East,87,0.0,-999.0,97,-99.99,,,0.00,weatherlink.com 1.10,2013-08-31 09:30:00,
2013-08-31 04:45:00,71.8,71.0,29.89,East,87,0.0,-999.0,97,-99.99,,,0.00,weatherlink.com 1.10,2013-08-31 09:45:00,
2013-08-31 05:00:00,71.7,71.0,29.90,East,87,0.0,-999.0,97,-99.99,,,0.00,weatherlink.com 1.10,2013-08-31 10:00:00,
2013-08-31 05:15:00,71.5,71.0,29.90,East,87,0.0,-999.0,97,-99.99,,,0.00,weatherlink.com 1.10,2013-08-31 10:15:00,
2013-08-31 05:30:00,71.5,71.0,29.90,East,87,0.0,-999.0,97,-99.99,,,0.00,weatherlink.com 1.10,2013-08-31 10:30:00,
2013-08-31 05:45:00,71.5,71.0,29.90,East,87,0.0,-999.0,97,-99.99,,,0.00,weatherlink.com 1.10,2013-08-31 10:45:00,
2013-08-31 06:00:00,71.4,71.0,29.90,East,87,0.0,-999.0,97,-99.99,,,0.00,weatherlink.com 1.10,2013-08-31 11:00:00,
2013-08-31 06:15:00,71.3,70.0,29.90,East,87,0.0,-999.0,97,-99.99,,,0.00,weatherlink.com 1.10,2013-08-31 11:15:00,
2013-08-31 06:30:00,71.3,70.0,29.90,NE,44,3.0,-999.0,97,-99.99,,,0.00,weatherlink.com 1.10,2013-08-31 11:30:00,
2013-08-31 06:45:00,71.3,70.0,29.91,NE,36,3.0,-999.0,97,-99.99,,,0.00,weatherlink.com 1.10,2013-08-31 11:45:00,
2013-08-31 07:00:00,71.5,71.0,29.91,NE,48,0.0,-999.0,97,-99.99,,,0.00,weatherlink.com 1.10,2013-08-31 12:00:00,
2013-08-31 07:15:00,71.7,71.0,29.91,NE,48,0.0,-999.0,97,-99.99,,,0.01,weatherlink.com 1.10,2013-08-31 12:15:00,
2013-08-31 07:30:00,72.0,71.0,29.91,NE,48,0.0,-999.0,97,-99.99,,,0.01,weatherlink.com 1.10,2013-08-31 12:30:00,
2013-08-31 07:45:00,72.3,71.0,29.91,NE,48,0.0,-999.0,97,-99.99,,,0.01,weatherlink.com 1.10,2013-08-31 12:45:00,
2013-08-31 08:01:00,72.6,72.0,29.91,NE,48,0.0,-999.0,97,-99.99,,,0.01,weatherlink.com 1.10,2013-08-31 13:01:00,
2013-08-31 08:16:00,72.9,72.0,29.91,NE,48,0.0,-999.0,97,-99.99,,,0.01,weatherlink.com 1.10,2013-08-31 13:16:00,
2013-08-31 08:31:00,73.5,73.0,29.92,NE,48,1.0,-999.0,97,-99.99,,,0.01,weatherlink.com 1.10,2013-08-31 13:31:00,
2013-08-31 08:46:00,74.0,73.0,29.92,NE,48,0.0,-999.0,97,-99.99,,,0.01,weatherlink.com 1.10,2013-08-31 13:46:00,
2013-08-31 09:01:00,74.3,73.0,29.93,West,264,0.0,-999.0,97,-99.99,,,0.01,weatherlink.com 1.10,2013-08-31 14:01:00,
2013-08-31 09:16:00,74.8,74.0,29.93,West,264,0.0,-999.0,97,-99.99,,,0.01,weatherlink.com 1.10,2013-08-31 14:16:00,
2013-08-31 09:31:00,75.3,74.0,29.93,West,264,0.0,-999.0,97,-99.99,,,0.01,weatherlink.com 1.10,2013-08-31 14:31:00,
2013-08-31 09:46:00,75.8,75.0,29.93,West,264,0.0,-999.0,97,-99.99,,,0.01,weatherlink.com 1.10,2013-08-31 14:46:00,
2013-08-31 10:01:00,76.5,76.0,29.93,SSW,209,0.0,-999.0,97,-99.99,,,0.01,weatherlink.com 1.10,2013-08-31 15:01:00,
2013-08-31 10:16:00,77.3,76.0,29.93,South,171,0.0,-999.0,97,-99.99,,,0.01,weatherlink.com 1.10,2013-08-31 15:16:00,
2013-08-31 10:31:00,77.5,76.0,29.93,West,265,0.0,-999.0,96,-99.99,,,0.01,weatherlink.com 1.10,2013-08-31 15:31:00,
2013-08-31 10:46:00,78.4,76.0,29.93,WNW,302,2.0,-999.0,93,-99.99,,,0.01,weatherlink.com 1.10,2013-08-31 15:46:00,
2013-08-31 11:01:00,79.4,77.0,29.92,West,277,0.0,-999.0,91,-99.99,,,0.01,weatherlink.com 1.10,2013-08-31 16:01:00,
2013-08-31 11:16:00,81.1,78.0,29.92,SSW,207,1.0,-999.0,89,-99.99,,,0.01,weatherlink.com 1.10,2013-08-31 16:16:00,
2013-08-31 11:31:00,82.7,78.0,29.91,SSW,207,0.0,-999.0,86,-99.99,,,0.01,weatherlink.com 1.10,2013-08-31 16:31:00,
2013-08-31 11:46:00,83.4,78.0,29.91,WSW,246,0.0,-999.0,83,-99.99,,,0.01,weatherlink.com 1.10,2013-08-31 16:46:00,
2013-08-31 12:01:00,84.2,78.0,29.90,NW,325,0.0,-999.0,82,-99.99,,,0.01,weatherlink.com 1.10,2013-08-31 17:01:00,
2013-08-31 12:16:00,85.3,79.0,29.90,NNW,346,0.0,-999.0,80,-99.99,,,0.01,weatherlink.com 1.10,2013-08-31 17:16:00,
2013-08-31 12:31:00,85.4,78.0,29.89,SW,234,0.0,-999.0,78,-99.99,,,0.01,weatherlink.com 1.10,2013-08-31 17:31:00,
2013-08-31 12:46:00,86.9,78.0,29.89,East,101,1.0,-999.0,74,-99.99,,,0.01,weatherlink.com 1.10,2013-08-31 17:46:00,
2013-08-31 13:01:00,87.7,78.0,29.89,WSW,238,0.0,-999.0,73,-99.99,,,0.01,weatherlink.com 1.10,2013-08-31 18:01:00,
2013-08-31 13:16:00,88.3,78.0,29.88,South,169,1.0,-999.0,71,-99.99,,,0.01,weatherlink.com 1.10,2013-08-31 18:16:00,
2013-08-31 13:31:00,88.9,78.0,29.87,SSE,151,0.0,-999.0,70,-99.99,,,0.01,weatherlink.com 1.10,2013-08-31 18:31:00,
2013-08-31 13:46:00,88.1,78.0,29.87,West,278,2.0,-999.0,71,-99.99,,,0.01,weatherlink.com 1.10,2013-08-31 18:46:00,
2013-08-31 14:02:00,86.8,79.0,29.86,West,275,0.0,-999.0,77,-99.99,,,0.01,weatherlink.com 1.10,2013-08-31 19:02:00,
2013-08-31 14:17:00,87.4,78.0,29.85,SW,221,0.0,-999.0,74,-99.99,,,0.01,weatherlink.com 1.10,2013-08-31 19:17:00,
2013-08-31 14:32:00,88.4,76.0,29.84,South,170,0.0,-999.0,67,-99.99,,,0.01,weatherlink.com 1.10,2013-08-31 19:32:00,
2013-08-31 14:47:00,89.9,78.0,29.83,WNW,282,2.0,-999.0,67,-99.99,,,0.01,weatherlink.com 1.10,2013-08-31 19:47:00,
2013-08-31 15:02:00,89.4,76.0,29.83,West,270,0.0,-999.0,64,-99.99,,,0.01,weatherlink.com 1.10,2013-08-31 20:02:00,
2013-08-31 15:17:00,86.1,75.0,29.86,West,261,3.0,-999.0,70,-99.99,,,0.01,weatherlink.com 1.10,2013-08-31 20:17:00,
2013-08-31 15:32:00,80.5,72.0,29.86,North,10,1.0,-999.0,75,-99.99,,,0.01,weatherlink.com 1.10,2013-08-31 20:32:00,
2013-08-31 15:47:00,79.0,72.0,29.85,NNE,33,0.0,-999.0,78,-99.99,,,0.01,weatherlink.com 1.10,2013-08-31 20:47:00,
2013-08-31 16:02:00,78.1,73.0,29.86,WNW,284,0.0,-999.0,83,-99.99,,,0.01,weatherlink.com 1.10,2013-08-31 21:02:00,
2013-08-31 16:17:00,77.4,73.0,29.84,WNW,284,0.0,-999.0,85,-99.99,,,0.01,weatherlink.com 1.10,2013-08-31 21:17:00,
2013-08-31 16:32:00,77.0,73.0,29.84,WNW,284,0.0,-999.0,86,-99.99,,,0.01,weatherlink.com 1.10,2013-08-31 21:32:00,
2013-08-31 16:47:00,76.9,72.0,29.83,West,269,0.0,-999.0,85,-99.99,,,0.01,weatherlink.com 1.10,2013-08-31 21:47:00,
2013-08-31 17:02:00,77.5,73.0,29.83,West,269,0.0,-999.0,85,-99.99,,,0.01,weatherlink.com 1.10,2013-08-31 22:02:00,
2013-08-31 17:17:00,78.7,74.0,29.83,West,269,0.0,-999.0,84,-99.99,,,0.01,weatherlink.com 1.10,2013-08-31 22:17:00,
2013-08-31 17:32:00,79.8,74.0,29.83,NNW,347,1.0,-999.0,82,-99.99,,,0.01,weatherlink.com 1.10,2013-08-31 22:32:00,
2013-08-31 17:47:00,80.2,75.0,29.82,NNW,347,0.0,-999.0,83,-99.99,,,0.01,weatherlink.com 1.10,2013-08-31 22:47:00,
2013-08-31 18:02:00,80.1,76.0,29.83,NNW,347,0.0,-999.0,87,-99.99,,,0.01,weatherlink.com 1.10,2013-08-31 23:02:00,
2013-08-31 18:17:00,79.1,75.0,29.84,South,171,0.0,-999.0,86,-99.99,,,0.01,weatherlink.com 1.10,2013-08-31 23:17:00,
2013-08-31 18:32:00,78.3,72.0,29.83,SW,226,0.0,-999.0,82,-99.99,,,0.01,weatherlink.com 1.10,2013-08-31 23:32:00,
2013-08-31 18:47:00,77.7,73.0,29.83,SW,226,0.0,-999.0,85,-99.99,,,0.01,weatherlink.com 1.10,2013-08-31 23:47:00,
2013-08-31 19:02:00,77.6,74.0,29.84,SSE,165,0.0,-999.0,87,-99.99,,,0.01,weatherlink.com 1.10,2013-09-01 00:02:00,
2013-08-31 19:17:00,77.2,74.0,29.84,SSE,165,0.0,-999.0,88,-99.99,,,0.01,weatherlink.com 1.10,2013-09-01 00:17:00,
2013-08-31 19:32:00,76.9,74.0,29.84,SSE,165,0.0,-999.0,89,-99.99,,,0.01,weatherlink.com 1.10,2013-09-01 00:32:00,
2013-08-31 19:47:00,76.5,74.0,29.85,SSE,165,1.0,-999.0,90,-99.99,,,0.01,weatherlink.com 1.10,2013-09-01 00:47:00,
2013-08-31 20:02:00,76.0,73.0,29.86,SSE,165,0.0,-999.0,91,-99.99,,,0.01,weatherlink.com 1.10,2013-09-01 01:02:00,
2013-08-31 20:17:00,75.5,73.0,29.87,SSE,165,1.0,-999.0,92,-99.99,,,0.01,weatherlink.com 1.10,2013-09-01 01:17:00,
2013-08-31 20:32:00,75.4,73.0,29.86,SSE,165,1.0,-999.0,92,-99.99,,,0.01,weatherlink.com 1.10,2013-09-01 01:32:00,
2013-08-31 20:47:00,75.3,73.0,29.86,South,173,2.0,-999.0,93,-99.99,,,0.01,weatherlink.com 1.10,2013-09-01 01:47:00,
2013-08-31 21:02:00,75.3,73.0,29.86,South,173,0.0,-999.0,93,-99.99,,,0.01,weatherlink.com 1.10,2013-09-01 02:02:00,
2013-08-31 21:17:00,75.2,73.0,29.87,South,173,0.0,-999.0,93,-99.99,,,0.01,weatherlink.com 1.10,2013-09-01 02:17:00,
2013-08-31 21:32:00,75.0,73.0,29.87,South,173,0.0,-999.0,93,-99.99,,,0.01,weatherlink.com 1.10,2013-09-01 02:32:00,
2013-08-31 21:47:00,74.8,73.0,29.86,South,173,0.0,-999.0,94,-99.99,,,0.01,weatherlink.com 1.10,2013-09-01 02:47:00,
2013-08-31 22:02:00,74.6,73.0,29.86,South,173,0.0,-999.0,94,-99.99,,,0.01,weatherlink.com 1.10,2013-09-01 03:02:00,
2013-08-31 22:17:00,74.2,72.0,29.85,South,173,1.0,-999.0,94,-99.99,,,0.01,weatherlink.com 1.10,2013-09-01 03:17:00,
2013-08-31 22:32:00,74.0,72.0,29.85,South,173,0.0,-999.0,94,-99.99,,,0.01,weatherlink.com 1.10,2013-09-01 03:32:00,
2013-08-31 22:47:00,73.8,72.0,29.86,South,173,0.0,-999.0,95,-99.99,,,0.01,weatherlink.com 1.10,2013-09-01 03:47:00,
2013-08-31 23:02:00,73.7,72.0,29.85,South,173,0.0,-999.0,95,-99.99,,,0.01,weatherlink.com 1.10,2013-09-01 04:02:00,
2013-08-31 23:17:00,73.5,72.0,29.84,South,173,0.0,-999.0,95,-99.99,,,0.01,weatherlink.com 1.10,2013-09-01 04:17:00,
2013-08-31 23:32:00,73.4,72.0,29.84,WSW,252,0.0,-999.0,95,-99.99,,,0.01,weatherlink.com 1.10,2013-09-01 04:32:00,
2013-08-31 23:47:00,73.4,72.0,29.85,SSW,213,0.0,-999.0,95,-99.99,,,0.01,weatherlink.com 1.10,2013-09-01 04:47:00,